STARLINK-31159, 58740

Orbit data source: Space-Track

STARLINK-31159, 58740 is a payload satellite owned by SpaceX/Seattle (US) in LEO that was launched on Sun, 07 Jan 2024 UTC via an FALCON 9 launch vehicle from the Air Force Eastern Test Range (AFETR). Payload-class satellites include a variety of spacecraft equipped with specific instruments for various scientific and technological missions. These include communications satellites like Starlink; space stations such as the ISS; scientific satellites like the Hubble; Earth observation satellites from companies like Planet Labs, Umbra, and HawkEye 360; GPS; miniature CubeSats for education and research; and military/defense satellites.

Loading next visibility...
Identifier
58740, 2024-005N
Orbit
LEO
Country
Flag of USUS
Related business
Manufacturer
SpaceX/Seattle
Mission
Operational Commercial Communications
Bus & Motor
STARLINK V2M, Unknown motor
Mass
730 kg wet, ~700 kg dry
Launch date (UTC)
2024-01-07 (2 years ago)
Launch vehicle
FALCON 9
Launch site
Air Force Eastern Test Range (AFETR)
Object type
Payload
Rocket body
Debris
Shape & HBR
Box + 2 Pan, 17.7 m
Radar Cross Section
33.884 m², Large (>1 m²)

Expand to show TLE details & history
Last TLE update: 3 days ago

TLE from 3 days ago
0 STARLINK-31159
1 58740U 24005N   26170.59909037  .00002998  00000-0  11857-3 0  9996
2 58740  43.0055   3.8563 0001441 280.8871  79.1818 15.27543959136129
Epoch: 2026-06-19T14:22Z
TLE epoch observation values (Epoch: 2026-06-19T14:22:41.407Z)
Latitude
-0.00008°
Longitude
-119.64207°
Altitude
482.748 km
Speed
7.626 km/s
True Right ascension
00h 15m 25s
True Declination
0° 00' 00"
Sunlit
Object was in daylight at epoch
Visualization orbit readout
Latitude
Unknown
Longitude
Unknown
Altitude
Unknown
Speed
Unknown
Apparent Right ascension
Unknown
Apparent Declination
Unknown
Sunlit
N/A
Visualization observer readout
Local Sidereal Time
21:24:27
Azimuth
Unknown
Elevation
Unknown
Doppler factor
Unknown
Orbital elements
Apogee altitude
486.09 km
Perigee altitude
484.112 km
Semi-major axis
6,863.238 km
Eccentricity
0.00014
Inclination
43.0055°
RAAN
3.8563°
Arg. of periapsis
280.8871°
True anomaly
79.19802°
Mean anomaly
79.1818°
Eccentric anomaly
79.18991°
Mean motion
3.81724 °/min
Orbital period
94.31 mins
BSTAR
0.00011857
Loading maneuver chart data...
Computing Atmospheric mass density...
Loading historical data...
Loading historical data...
Loading historical data...
Loading historical data...
Loading historical data...
Loading historical data...
Loading historical data...

Documentation

Showing up to 5 results
|